Location: ?????????
(55.6553°N, 38.9075°E)
Time: 17:47:29
(UTC+00:00)

COSMOS 2428 - Pass Details

Date: 18 October 2019
Orbit: 844 x 858 km, 70.9° (Epoch: 20 November)

Event Time Altitude Azimuth Distance (km) Brightness Sun altitude
Exits shadow 02:03:11 19° 220° (SW) 1,935 4.1 -17.2°
Maximum altitude 02:07:25 78° 306° (NW) 869 2.6 -16.6°
Drops below altitude 10° 02:13:07 10° 33° (NNE) 2,479 5.7 -15.8°
Sets 02:15:35 0° 35° (NE) 3,419 6.5 -15.4°
